sat.trackr.live / text

‹ back to catalog

STARLINK-30256

NORAD 57522 · 2023-115B

PAYLOAD ACTIVE UNKNOWN

§ Identity

Operator
Country
US
Launch date
2023-08-08
Launch site
AFWTR
Launch vehicle
Mass (kg)
RCS (m²)

Purposes: comms

External: N2YO · Heavens-Above · Gunter

§ Orbital elements

Epoch: 2026-05-25T02:25:53.297184Z

Period
94.27 min
Inclination
43.0027°
Eccentricity
0.0000906
Mean motion
15.27590772 rev/d
Perigee alt
482.4 km
Apogee alt
483.6 km
Semi-major
6,861.2 km
B*
6.9274e-5
RAAN
290.3870°
Arg perigee
281.9268°
Mean anomaly
78.1482°
Rev number
15,403

§ Raw data

STARLINK-302561 57522U 23115B   26145.10131131  .00001645  00000+0  69274-4 0  99992 57522  43.0027 290.3870 0000906 281.9268  78.1482 15.27590772154037

JSON: /api/v1/satellites/57522 · /tle

For live sub-satellite position, see the globe view (requires WebGL).

§ Visibility from observer

Set your observer location to see the next 7 days of passes ≥ 10°. The values pass through the URL so the page stays shareable.

No JS? Fill the form by hand. The geolocation button needs JavaScript.